SR3WXA Weather Reports


Display with metric or nautical units.
time (UTC)temp
F
wind
direction
speed
MPH
gust
MPH
rain 1hr
in
rain 24hr
in
rain mn
in
humidity
%
barometer
mb
20260509103315 59 0 0.0 0.0 0.00 0.00 0.00 59 1022.0
20260509102815 59 0 0.0 0.0 0.00 0.00 0.00 58 1022.1
20260509102315 59 0 0.0 0.0 0.00 0.00 0.00 58 1022.1
20260509101815 59 0 0.0 0.0 0.00 0.00 0.00 57 1022.2
20260509101316 60 0 0.0 0.0 0.00 0.00 0.00 57 1022.1
20260509100815 60 0 0.0 0.0 0.00 0.00 0.00 58 1022.2
20260509100315 59 0 0.0 0.0 0.00 0.00 0.00 59 1022.2
20260509095815 59 0 0.0 0.0 0.00 0.00 0.00 57 1022.2
20260509094815 59 0 0.0 0.0 0.00 0.00 0.00 59 1022.3
20260509094315 58 0 0.0 0.0 0.00 0.00 0.00 60 1022.3
20260509093815 58 0 0.0 0.0 0.00 0.00 0.00 59 1022.3
20260509093315 58 0 0.0 0.0 0.00 0.00 0.00 60 1022.3
20260509092815 57 0 0.0 0.0 0.00 0.00 0.00 60 1022.3
20260509092315 58 0 0.0 0.0 0.00 0.00 0.00 59 1022.2
20260509091816 58 0 0.0 0.0 0.00 0.00 0.00 59 1022.2
20260509091315 58 0 0.0 0.0 0.00 0.00 0.00 60 1022.1
20260509090815 57 0 0.0 0.0 0.00 0.00 0.00 60 1022.1
20260509085803 58 0 0.0 0.0 0.00 0.00 0.00 60 1022.1
20260509085306 58 0 0.0 0.0 0.00 0.00 0.00 59 1022.1
20260509084803 58 0 0.0 0.0 0.00 0.00 0.00 58 1022.2
20260509084303 58 0 0.0 0.0 0.00 0.00 0.00 60 1022.2
20260509083440 57 0 0.0 0.0 0.00 0.00 0.00 59 1022.1
20260509082940 57 0 0.0 0.0 0.00 0.00 0.00 61 1022.0
20260509082440 57 0 0.0 0.0 0.00 0.00 0.00 61 1022.1
20260509081940 57 0 0.0 0.0 0.00 0.00 0.00 62 1022.1
20260509081440 57 0 0.0 0.0 0.00 0.00 0.00 62 1022.1
20260509080941 57 0 0.0 0.0 0.00 0.00 0.00 62 1022.1
20260509080440 57 0 0.0 0.0 0.00 0.00 0.00 62 1022.0
20260509075940 57 0 0.0 0.0 0.00 0.00 0.00 64 1022.0
20260509075440 56 0 0.0 0.0 0.00 0.00 0.00 67 1022.0
20260509074940 56 0 0.0 0.0 0.00 0.00 0.00 65 1022.0
20260509073940 56 0 0.0 0.0 0.00 0.00 0.00 67 1022.1
20260509073440 55 0 0.0 0.0 0.00 0.00 0.00 68 1022.1
20260509072940 55 0 0.0 0.0 0.00 0.00 0.00 68 1022.2
20260509072440 54 0 0.0 0.0 0.00 0.00 0.00 68 1022.2
20260509071940 54 0 0.0 0.0 0.00 0.00 0.00 69 1022.2
20260509071440 54 0 0.0 0.0 0.00 0.00 0.00 71 1022.3
20260509070941 54 0 0.0 0.0 0.00 0.00 0.00 71 1022.2
20260509070440 53 0 0.0 0.0 0.00 0.00 0.00 73 1022.1
20260509065940 53 0 0.0 0.0 0.00 0.00 0.00 76 1022.3
20260509065440 52 0 0.0 0.0 0.00 0.00 0.00 76 1022.2
20260509064941 52 0 0.0 0.0 0.00 0.00 0.00 76 1022.3
20260509064440 52 0 0.0 0.0 0.00 0.00 0.00 76 1022.3
20260509063940 52 0 0.0 0.0 0.00 0.00 0.00 76 1022.2
20260509063440 52 0 0.0 0.0 0.00 0.00 0.00 76 1022.2
20260509062940 52 0 0.0 0.0 0.00 0.00 0.00 77 1022.2
20260509062440 52 0 0.0 0.0 0.00 0.00 0.00 76 1022.2
20260509061312 51 0 0.0 0.0 0.00 0.00 0.00 78 1022.2
20260509060812 50 0 0.0 0.0 0.00 0.00 0.00 79 1022.2
20260509060312 50 0 0.0 0.0 0.00 0.00 0.00 80 1022.2
20260509055812 49 0 0.0 0.0 0.00 0.00 0.00 80 1022.1
20260509055312 49 0 0.0 0.0 0.00 0.00 0.00 81 1022.1
20260509054812 48 0 0.0 0.0 0.00 0.00 0.00 82 1022.0
20260509053747 47 0 0.0 0.0 0.00 0.00 0.00 83 1022.1
20260509053247 47 0 0.0 0.0 0.00 0.00 0.00 83 1022.1
20260509052247 46 0 0.0 0.0 0.00 0.00 0.00 85 1022.0
20260509051747 46 0 0.0 0.0 0.00 0.00 0.00 86 1022.0
20260509051247 46 0 0.0 0.0 0.00 0.00 0.00 87 1022.0
20260509050747 46 0 0.0 0.0 0.00 0.00 0.00 87 1021.9
20260509050247 46 0 0.0 0.0 0.00 0.00 0.00 87 1021.9
20260509045747 45 0 0.0 0.0 0.00 0.00 0.00 87 1021.7
20260509045247 45 0 0.0 0.0 0.00 0.00 0.00 86 1021.7
20260509044747 45 0 0.0 0.0 0.00 0.00 0.00 86 1021.7
20260509044246 45 0 0.0 0.0 0.00 0.00 0.00 87 1021.7
20260509043747 45 0 0.0 0.0 0.00 0.00 0.00 87 1021.7
20260509043246 45 0 0.0 0.0 0.00 0.00 0.00 87 1021.6
20260509042746 45 0 0.0 0.0 0.00 0.00 0.00 87 1021.7
20260509042246 44 0 0.0 0.0 0.00 0.00 0.00 87 1021.8
20260509041746 44 0 0.0 0.0 0.00 0.00 0.00 87 1021.7
20260509041246 44 0 0.0 0.0 0.00 0.00 0.00 87 1021.8
20260509040746 44 0 0.0 0.0 0.00 0.00 0.00 86 1021.7
20260509040247 44 0 0.0 0.0 0.00 0.00 0.00 87 1021.8
20260509035746 44 0 0.0 0.0 0.00 0.00 0.00 87 1021.7
20260509035247 44 0 0.0 0.0 0.00 0.00 0.00 87 1021.7
20260509034746 44 0 0.0 0.0 0.00 0.00 0.00 87 1021.7
20260509033925 44 0 0.0 0.0 0.00 0.00 0.00 87 1021.7
20260509033425 44 0 0.0 0.0 0.00 0.00 0.00 87 1021.7
20260509032925 44 0 0.0 0.0 0.00 0.00 0.00 87 1021.7
20260509032426 44 0 0.0 0.0 0.00 0.00 0.00 87 1021.7
20260509031925 44 0 0.0 0.0 0.00 0.00 0.00 86 1021.7
20260509031425 44 0 0.0 0.0 0.00 0.00 0.00 86 1021.6
20260509030925 44 0 0.0 0.0 0.00 0.00 0.00 86 1021.6
20260509030425 44 0 0.0 0.0 0.00 0.00 0.00 86 1021.6
20260509025925 44 0 0.0 0.0 0.00 0.00 0.00 86 1021.5
20260509025425 44 0 0.0 0.0 0.00 0.00 0.00 87 1021.5
20260509024925 44 0 0.0 0.0 0.00 0.00 0.00 87 1021.5
20260509024425 44 0 0.0 0.0 0.00 0.00 0.00 86 1021.5
20260509023925 44 0 0.0 0.0 0.00 0.00 0.00 86 1021.5
20260509023425 44 0 0.0 0.0 0.00 0.00 0.00 86 1021.5
20260509022925 45 0 0.0 0.0 0.00 0.00 0.00 86 1021.5
20260509022425 45 0 0.0 0.0 0.00 0.00 0.00 87 1021.5
20260509021925 44 0 0.0 0.0 0.00 0.00 0.00 87 1021.4
20260509021425 45 0 0.0 0.0 0.00 0.00 0.00 87 1021.4
20260509020925 45 0 0.0 0.0 0.00 0.00 0.00 87 1021.4
20260509020425 45 0 0.0 0.0 0.00 0.00 0.00 87 1021.4
20260509015925 45 0 0.0 0.0 0.00 0.00 0.00 88 1021.5
20260509015425 45 0 0.0 0.0 0.00 0.00 0.00 88 1021.4
20260509014925 44 0 0.0 0.0 0.00 0.00 0.00 88 1021.4
20260509014425 44 0 0.0 0.0 0.00 0.00 0.00 88 1021.4
20260509013925 44 0 0.0 0.0 0.00 0.00 0.00 88 1021.4
20260509013425 44 0 0.0 0.0 0.00 0.00 0.00 88 1021.4
20260509012925 44 0 0.0 0.0 0.00 0.00 0.00 88 1021.4
20260509012425 44 0 0.0 0.0 0.00 0.00 0.00 88 1021.5
20260509011925 44 0 0.0 0.0 0.00 0.00 0.00 87 1021.5
20260509011425 45 0 0.0 0.0 0.00 0.00 0.00 87 1021.5
20260509010925 45 0 0.0 0.0 0.00 0.00 0.00 87 1021.5
20260509010425 45 0 0.0 0.0 0.00 0.00 0.00 87 1021.4
20260509005925 45 0 0.0 0.0 0.00 0.00 0.00 87 1021.4
20260509005425 45 0 0.0 0.0 0.00 0.00 0.00 87 1021.4
20260509004924 45 0 0.0 0.0 0.00 0.00 0.00 87 1021.4
20260509004042 45 0 0.0 0.0 0.00 0.00 0.00 87 1021.4
20260509003541 45 0 0.0 0.0 0.00 0.00 0.00 86 1021.4
20260509003041 45 0 0.0 0.0 0.00 0.00 0.00 87 1021.4
20260509002541 45 0 0.0 0.0 0.00 0.00 0.00 87 1021.5
20260509002041 45 0 0.0 0.0 0.00 0.00 0.00 87 1021.5
20260509001541 45 0 0.0 0.0 0.00 0.00 0.00 87 1021.5
20260509001041 46 0 0.0 0.0 0.00 0.00 0.00 87 1021.5
20260509000541 46 0 0.0 0.0 0.00 0.00 0.00 87 1021.5
20260509000041 46 0 0.0 0.0 0.00 0.00 0.00 87 1021.5
20260508235541 46 0 0.0 0.0 0.00 0.00 0.00 87 1021.5
20260508235041 46 0 0.0 0.0 0.00 0.00 0.00 86 1021.5
20260508234425 46 0 0.0 0.0 0.00 0.00 0.00 86 1021.5
20260508233925 46 0 0.0 0.0 0.00 0.00 0.00 86 1021.5
20260508233425 46 0 0.0 0.0 0.00 0.00 0.00 86 1021.5
20260508232925 46 0 0.0 0.0 0.00 0.00 0.00 85 1021.6
20260508232425 46 0 0.0 0.0 0.00 0.00 0.00 85 1021.5
20260508231925 47 0 0.0 0.0 0.00 0.00 0.00 84 1021.5
20260508231314 47 0 0.0 0.0 0.00 0.00 0.00 84 1021.6
20260508230814 47 0 0.0 0.0 0.00 0.00 0.00 84 1021.5
20260508230314 47 0 0.0 0.0 0.00 0.00 0.00 84 1021.5
20260508225814 47 0 0.0 0.0 0.00 0.00 0.00 84 1021.6
20260508225314 47 0 0.0 0.0 0.00 0.00 0.00 84 1021.5
20260508224814 47 0 0.0 0.0 0.00 0.00 0.00 85 1021.5
20260508224314 48 0 0.0 0.0 0.00 0.00 0.00 84 1021.5
20260508223814 48 0 0.0 0.0 0.00 0.00 0.00 85 1021.5
20260508223314 48 0 0.0 0.0 0.00 0.00 0.00 85 1021.5
20260508222814 48 0 0.0 0.0 0.00 0.00 0.00 86 1021.5
20260508221956 47 0 0.0 0.0 0.00 0.00 0.00 88 1021.4
20260508221456 47 0 0.0 0.0 0.00 0.00 0.00 89 1021.4
20260508220956 47 0 0.0 0.0 0.00 0.00 0.00 89 1021.4
20260508220456 47 0 0.0 0.0 0.00 0.00 0.00 89 1021.4
20260508215956 47 0 0.0 0.0 0.00 0.00 0.00 89 1021.5
20260508215456 47 0 0.0 0.0 0.00 0.00 0.00 89 1021.4
20260508214956 47 0 0.0 0.0 0.00 0.00 0.00 89 1021.4
20260508214456 47 0 0.0 0.0 0.00 0.00 0.00 88 1021.4
20260508213956 47 0 0.0 0.0 0.00 0.00 0.00 88 1021.4
20260508213456 47 0 0.0 0.0 0.00 0.00 0.00 88 1021.4
20260508212956 47 0 0.0 0.0 0.00 0.00 0.00 87 1021.4
20260508212456 47 0 0.0 0.0 0.00 0.00 0.00 87 1021.4
20260508211956 47 0 0.0 0.0 0.00 0.00 0.00 87 1021.4
20260508211456 48 0 0.0 0.0 0.00 0.00 0.00 86 1021.4
20260508210956 48 0 0.0 0.0 0.00 0.00 0.00 86 1021.4
20260508210456 48 0 0.0 0.0 0.00 0.00 0.00 86 1021.4
20260508205956 48 0 0.0 0.0 0.00 0.00 0.00 85 1021.4
20260508205456 48 0 0.0 0.0 0.00 0.00 0.00 85 1021.4
20260508204956 48 0 0.0 0.0 0.00 0.00 0.00 84 1021.4
20260508204456 49 0 0.0 0.0 0.00 0.00 0.00 84 1021.4
20260508203956 49 0 0.0 0.0 0.00 0.00 0.00 83 1021.4
20260508203456 49 0 0.0 0.0 0.00 0.00 0.00 83 1021.3
20260508202956 49 0 0.0 0.0 0.00 0.00 0.00 82 1021.3
20260508202236 50 0 0.0 0.0 0.00 0.00 0.00 81 1021.3
20260508201737 50 0 0.0 0.0 0.00 0.00 0.00 81 1021.2
20260508201236 50 0 0.0 0.0 0.00 0.00 0.00 80 1021.2
20260508200736 51 0 0.0 0.0 0.00 0.00 0.00 79 1021.1
20260508200236 51 0 0.0 0.0 0.00 0.00 0.00 79 1021.1
20260508195736 51 0 0.0 0.0 0.00 0.00 0.00 78 1021.1
20260508195236 51 0 0.0 0.0 0.00 0.00 0.00 78 1021.1
20260508194736 52 0 0.0 0.0 0.00 0.00 0.00 78 1021.0
20260508194236 52 0 0.0 0.0 0.00 0.00 0.00 77 1021.0
20260508193236 52 0 0.0 0.0 0.00 0.00 0.00 77 1020.9
20260508192736 52 0 0.0 0.0 0.00 0.00 0.00 77 1020.9
20260508192236 52 0 0.0 0.0 0.00 0.00 0.00 77 1020.8
20260508191736 52 0 0.0 0.0 0.00 0.00 0.00 77 1020.8
20260508191236 52 0 0.0 0.0 0.00 0.00 0.00 76 1020.8
20260508190739 52 0 0.0 0.0 0.00 0.00 0.00 76 1020.8
20260508190236 52 0 0.0 0.0 0.00 0.00 0.00 76 1020.7
20260508185736 52 0 0.0 0.0 0.00 0.00 0.00 76 1020.7
20260508185236 52 0 0.0 0.0 0.00 0.00 0.00 76 1020.6
20260508184736 53 0 0.0 0.0 0.00 0.00 0.00 75 1020.6
20260508184236 53 0 0.0 0.0 0.00 0.00 0.00 75 1020.5
20260508183512 53 0 0.0 0.0 0.00 0.00 0.00 75 1020.5
20260508183012 53 0 0.0 0.0 0.00 0.00 0.00 75 1020.4
20260508182512 53 0 0.0 0.0 0.00 0.00 0.00 74 1020.4
20260508182012 53 0 0.0 0.0 0.00 0.00 0.00 74 1020.3
20260508181512 54 0 0.0 0.0 0.00 0.00 0.00 73 1020.3
20260508181011 54 0 0.0 0.0 0.00 0.00 0.00 72 1020.2
20260508180511 54 0 0.0 0.0 0.00 0.00 0.00 71 1020.2
20260508180012 55 0 0.0 0.0 0.00 0.00 0.00 70 1020.2
20260508174944 55 0 0.0 0.0 0.00 0.00 0.00 69 1020.1
20260508174443 56 0 0.0 0.0 0.00 0.00 0.00 69 1020.1
20260508173943 56 0 0.0 0.0 0.00 0.00 0.00 69 1020.0
20260508173444 56 0 0.0 0.0 0.00 0.00 0.00 70 1020.0
20260508172718 55 0 0.0 0.0 0.00 0.00 0.00 70 1020.0
20260508171718 55 0 0.0 0.0 0.00 0.00 0.00 70 1019.9
20260508171218 55 0 0.0 0.0 0.00 0.00 0.00 71 1019.8
20260508170719 55 0 0.0 0.0 0.00 0.00 0.00 71 1019.9
20260508165718 55 0 0.0 0.0 0.00 0.00 0.00 71 1019.8
20260508165218 55 0 0.0 0.0 0.00 0.00 0.00 70 1019.9
20260508164718 54 0 0.0 0.0 0.00 0.00 0.00 70 1020.0
20260508164218 55 0 0.0 0.0 0.00 0.00 0.00 70 1019.9
20260508163718 55 0 0.0 0.0 0.00 0.00 0.00 71 1019.9
20260508163218 55 0 0.0 0.0 0.00 0.00 0.00 70 1019.9
20260508162719 55 0 0.0 0.0 0.00 0.00 0.00 69 1019.9
20260508162219 55 0 0.0 0.0 0.00 0.00 0.00 70 1019.9
20260508161218 55 0 0.0 0.0 0.00 0.00 0.00 69 1019.9
20260508160718 55 0 0.0 0.0 0.00 0.00 0.00 69 1019.9
20260508160118 55 0 0.0 0.0 0.00 0.00 0.00 70 1019.9
20260508155616 55 0 0.0 0.0 0.00 0.00 0.00 69 1019.9
20260508155116 55 0 0.0 0.0 0.00 0.00 0.00 70 1020.0
20260508154616 54 0 0.0 0.0 0.00 0.00 0.00 69 1020.0
20260508154116 55 0 0.0 0.0 0.00 0.00 0.00 69 1020.0
20260508153616 55 0 0.0 0.0 0.00 0.00 0.00 69 1020.0
20260508153116 55 0 0.0 0.0 0.00 0.00 0.00 69 1020.0
20260508152617 54 0 0.0 0.0 0.00 0.00 0.00 70 1020.0
20260508152116 54 0 0.0 0.0 0.00 0.00 0.00 70 1020.0
20260508151616 54 0 0.0 0.0 0.00 0.00 0.00 70 1020.0
20260508151116 54 0 0.0 0.0 0.00 0.00 0.00 70 1020.1
20260508150616 54 0 0.0 0.0 0.00 0.00 0.00 70 1020.1
20260508150019 55 0 0.0 0.0 0.00 0.00 0.00 69 1020.1
20260508145519 54 0 0.0 0.0 0.00 0.00 0.00 71 1020.1
20260508145019 54 0 0.0 0.0 0.00 0.00 0.00 71 1020.2
20260508144520 54 0 0.0 0.0 0.00 0.00 0.00 71 1020.1
20260508144020 54 0 0.0 0.0 0.00 0.00 0.00 72 1020.2
20260508143519 54 0 0.0 0.0 0.00 0.00 0.00 72 1020.2
20260508143019 54 0 0.0 0.0 0.00 0.00 0.00 74 1020.2
20260508142519 53 0 0.0 0.0 0.00 0.00 0.00 74 1020.2
20260508142019 53 0 0.0 0.0 0.00 0.00 0.00 74 1020.3
20260508141019 53 0 0.0 0.0 0.00 0.00 0.00 74 1020.4
20260508140519 53 0 0.0 0.0 0.00 0.00 0.00 75 1020.4
20260508140020 52 0 0.0 0.0 0.00 0.00 0.00 75 1020.5
20260508135519 52 0 0.0 0.0 0.00 0.00 0.00 76 1020.5
20260508135019 52 0 0.0 0.0 0.00 0.00 0.00 76 1020.5
20260508134519 52 0 0.0 0.0 0.00 0.00 0.00 77 1020.5
20260508134020 52 0 0.0 0.0 0.00 0.00 0.00 77 1020.4
20260508133519 52 0 0.0 0.0 0.00 0.00 0.00 76 1020.5
20260508133019 52 0 0.0 0.0 0.00 0.00 0.00 77 1020.5
20260508132519 52 0 0.0 0.0 0.00 0.00 0.00 77 1020.6
20260508132020 52 0 0.0 0.0 0.00 0.00 0.00 76 1020.5
20260508131521 52 0 0.0 0.0 0.00 0.00 0.00 77 1020.6
20260508131019 52 0 0.0 0.0 0.00 0.00 0.00 77 1020.7
20260508130118 52 0 0.0 0.0 0.00 0.00 0.00 78 1020.7
20260508125618 52 0 0.0 0.0 0.00 0.00 0.00 78 1020.7
20260508125118 52 0 0.0 0.0 0.00 0.00 0.00 78 1020.7
20260508124618 52 0 0.0 0.0 0.00 0.00 0.00 79 1020.7
20260508124118 52 0 0.0 0.0 0.00 0.00 0.00 79 1020.7
20260508123618 51 0 0.0 0.0 0.00 0.00 0.00 79 1020.7
20260508123118 51 0 0.0 0.0 0.00 0.00 0.00 79 1020.7
20260508122618 52 0 0.0 0.0 0.00 0.00 0.00 78 1020.7
20260508122006 52 0 0.0 0.0 0.00 0.00 0.00 78 1020.7
20260508121507 52 0 0.0 0.0 0.00 0.00 0.00 77 1020.6
20260508120506 52 0 0.0 0.0 0.00 0.00 0.00 77 1020.6
20260508120006 52 0 0.0 0.0 0.00 0.00 0.00 77 1020.5
20260508115506 52 0 0.0 0.0 0.00 0.00 0.00 78 1020.5
20260508115006 52 0 0.0 0.0 0.00 0.00 0.00 78 1020.5
20260508114506 52 0 0.0 0.0 0.00 0.00 0.00 78 1020.5
20260508114006 52 0 0.0 0.0 0.00 0.00 0.00 78 1020.5
20260508113506 51 0 0.0 0.0 0.00 0.00 0.00 78 1020.6
20260508112546 52 0 0.0 0.0 0.00 0.00 0.00 77 1020.6
20260508112046 52 0 0.0 0.0 0.00 0.00 0.00 77 1020.6
20260508111546 52 0 0.0 0.0 0.00 0.00 0.00 77 1020.6
20260508111049 52 0 0.0 0.0 0.00 0.00 0.00 78 1020.5
20260508110546 52 0 0.0 0.0 0.00 0.00 0.00 78 1020.6
20260508110047 51 0 0.0 0.0 0.00 0.00 0.00 79 1020.6
20260508105546 51 0 0.0 0.0 0.00 0.00 0.00 79 1020.5
20260508105048 51 0 0.0 0.0 0.00 0.00 0.00 79 1020.5
20260508104546 51 0 0.0 0.0 0.00 0.00 0.00 79 1020.5
20260508104046 51 0 0.0 0.0 0.00 0.00 0.00 79 1020.5
20260508103546 51 0 0.0 0.0 0.00 0.00 0.00 78 1020.5